Weather History for Astoria, OR

Change the Weather History Date:

Friday, February 3, 2012

  Actual Average Record
Temperature  
Mean Temperature 48 °F 44 °F  
Max Temperature 58 °F 51 °F 64 °F (2009)
Min Temperature 37 °F 37 °F 11 °F (1989)
Degree Days  
Heating Degree Days 17 21  
Month to date heating degree days 55 63  
Since 1 July heating degree days 2932 2828  
Cooling Degree Days 0 0  
Month to date cooling degree days 0 0  
Year to date cooling degree days 0 0  
Moisture  
Dew Point 26 °F    
Average Humidity 44    
Maximum Humidity 58    
Minimum Humidity 30    
Precipitation  
Precipitation 0.00 in 0.27 in 3.60 in (1907)
Month to date precipitation 0.13 0.80  
Year to date precipitation 10.93 11.00  
Snow  
Snow 0.00 in - - ()
Month to date snowfall 0.0  
Snow Depth 0.00 in    
Sea Level Pressure  
Sea Level Pressure 30.06 in    
Wind  
Wind Speed 11 mph (ESE)    
Max Wind Speed 23 mph    
Max Gust Speed 31 mph    
Visibility 10 miles    
Events      
T = Trace of Precipitation, MM = Missing Value Source: NWS Daily Summary

Daily Weather History Graph

Daily Weather History Graph

Search for Another Location

Airport:

Trip Planner

Search our weather history database for the weather conditions in past years. The results will help you decide how hot, cold, wet, or windy it might be!

Date:

Astronomy

Feb. 03, 2012 Rise Set
Actual Time 7:36 AM PST 5:23 PM PST
Civil Twilight 7:04 AM PST 5:54 PM PST
Nautical Twilight 6:28 AM PST 6:30 PM PST
Astronomical Twilight 5:53 AM PST 7:05 PM PST
Moon 1:21 PM PST (2/3) 4:24 AM PST (2/3)
Length of Visible Light 10h 50m
Length of Day
9h 46m
Waxing Gibbous, 82% of the Moon is Illuminated
Feb 3
Waxing Gibbous
Feb 7
Full
Feb 14
Last Quarter
Feb 21
New
Feb 29
First Quarter

Hourly Weather History & Observations

Time (PST) Temp. Windchill Dew Point Humidity Pressure Visibility Wind Dir Wind Speed Gust Speed Precip Events Conditions
12:55 AM 46.0 °F 42.5 °F 28.0 °F 50% 30.12 in 10.0 mi East 6.9 mph - N/A   Clear
1:55 AM 44.1 °F 40.8 °F 27.0 °F 51% 30.11 in 10.0 mi SE 5.8 mph - N/A   Clear
2:55 AM 42.1 °F 38.4 °F 26.1 °F 53% 30.10 in 10.0 mi East 5.8 mph - N/A   Clear
3:55 AM 44.1 °F 38.6 °F 25.0 °F 47% 30.08 in 10.0 mi South 10.4 mph - N/A   Clear
4:55 AM 42.1 °F 37.7 °F 24.1 °F 49% 30.07 in 10.0 mi ESE 6.9 mph - N/A   Clear
5:55 AM 42.1 °F 39.2 °F 24.1 °F 49% 30.06 in 10.0 mi East 4.6 mph - N/A   Clear
6:55 AM 41.0 °F 35.2 °F 25.0 °F 53% 30.04 in 10.0 mi East 9.2 mph - N/A   Clear
7:55 AM 45.0 °F 39.3 °F 24.1 °F 44% 30.04 in 10.0 mi ESE 11.5 mph 17.3 mph N/A   Clear
8:55 AM 48.0 °F - 24.1 °F 39% 30.04 in 10.0 mi ESE 19.6 mph 29.9 mph N/A   Clear
9:55 AM 50.0 °F - 26.1 °F 39% 30.05 in 10.0 mi ESE 13.8 mph 28.8 mph N/A   Clear
10:55 AM 53.1 °F - 27.0 °F 37% 30.04 in 10.0 mi ESE 12.7 mph 26.5 mph N/A   Clear
11:55 AM 55.9 °F - 27.0 °F 33% 30.04 in 10.0 mi ESE 18.4 mph 24.2 mph N/A   Clear
12:55 PM 57.0 °F - 27.0 °F 32% 30.02 in 10.0 mi East 15.0 mph 24.2 mph N/A   Clear
1:55 PM 57.9 °F - 28.0 °F 32% 30.01 in 10.0 mi ESE 15.0 mph 21.9 mph N/A   Clear
2:55 PM 55.9 °F - 27.0 °F 33% 30.03 in 10.0 mi ESE 17.3 mph 25.3 mph N/A   Clear
3:55 PM 55.9 °F - 28.0 °F 34% 30.04 in 10.0 mi ESE 11.5 mph - N/A   Clear
4:55 PM 53.1 °F - 27.0 °F 37% 30.05 in 10.0 mi ESE 11.5 mph 19.6 mph N/A   Clear
5:55 PM 51.1 °F - 27.0 °F 39% 30.04 in 10.0 mi East 11.5 mph 19.6 mph N/A   Clear
6:55 PM 50.0 °F - 26.1 °F 39% 30.05 in 10.0 mi East 8.1 mph - N/A   Clear
7:55 PM 50.0 °F - 26.1 °F 39% 30.06 in 10.0 mi ESE 6.9 mph - N/A   Clear
8:55 PM 48.9 °F - 26.1 °F 41% 30.07 in 10.0 mi SE 11.5 mph - N/A   Clear
9:55 PM 48.0 °F - 27.0 °F 44% 30.10 in 10.0 mi SE 8.1 mph - N/A   Clear
10:55 PM 46.0 °F 42.5 °F 27.0 °F 47% 30.10 in 10.0 mi East 6.9 mph - N/A   Clear
11:55 PM 46.0 °F 43.1 °F 28.0 °F 50% 30.11 in 10.0 mi SE 5.8 mph - N/A   Clear